Time,TemperatureF,DewpointF,PressureIn,WindDirection,WindDirectionDegrees,WindSpeedMPH,WindSpeedGustMPH,Humidity,HourlyPrecipIn,Conditions,Clouds,dailyrainin,SoftwareType,DateUTC
2013-11-22 00:13:00,59.3,55.0,29.48,North,357,0.0,-999.0,86,-99.99,,,0.55,weatherlink.com 1.10,2013-11-22 07:13:00,
2013-11-22 00:28:00,59.2,56.0,29.48,North,357,0.0,-999.0,88,-99.99,,,0.57,weatherlink.com 1.10,2013-11-22 07:28:00,
2013-11-22 00:43:00,58.7,55.0,29.48,North,357,1.0,-999.0,88,-99.99,,,0.59,weatherlink.com 1.10,2013-11-22 07:43:00,
2013-11-22 00:58:00,58.1,55.0,29.48,North,357,1.0,-999.0,88,-99.99,,,0.60,weatherlink.com 1.10,2013-11-22 07:58:00,
2013-11-22 01:13:00,58.1,55.0,29.48,North,357,0.0,-999.0,89,-99.99,,,0.61,weatherlink.com 1.10,2013-11-22 08:13:00,
2013-11-22 01:28:00,58.0,55.0,29.48,North,353,1.0,-999.0,89,-99.99,,,0.64,weatherlink.com 1.10,2013-11-22 08:28:00,
2013-11-22 01:43:00,57.8,55.0,29.48,SSW,210,0.0,-999.0,90,-99.99,,,0.01,weatherlink.com 1.10,2013-11-22 08:43:00,
2013-11-22 01:58:00,57.5,55.0,29.48,North,353,1.0,-999.0,91,-99.99,,,0.03,weatherlink.com 1.10,2013-11-22 08:58:00,
2013-11-22 02:13:00,57.3,55.0,29.47,North,357,1.0,-999.0,91,-99.99,,,0.06,weatherlink.com 1.10,2013-11-22 09:13:00,
2013-11-22 02:28:00,57.2,55.0,29.46,North,356,0.0,-999.0,91,-99.99,,,0.08,weatherlink.com 1.10,2013-11-22 09:28:00,
2013-11-22 02:43:00,57.2,55.0,29.46,North,357,2.0,-999.0,92,-99.99,,,0.10,weatherlink.com 1.10,2013-11-22 09:43:00,
2013-11-22 02:58:00,57.0,55.0,29.47,North,354,0.0,-999.0,92,-99.99,,,0.12,weatherlink.com 1.10,2013-11-22 09:58:00,
2013-11-22 03:13:00,56.9,55.0,29.47,North,357,0.0,-999.0,92,-99.99,,,0.15,weatherlink.com 1.10,2013-11-22 10:13:00,
2013-11-22 03:28:00,56.6,54.0,29.46,North,356,2.0,-999.0,92,-99.99,,,0.16,weatherlink.com 1.10,2013-11-22 10:28:00,
2013-11-22 03:43:00,56.7,55.0,29.46,North,357,0.0,-999.0,92,-99.99,,,0.17,weatherlink.com 1.10,2013-11-22 10:43:00,
2013-11-22 03:58:00,56.7,54.0,29.46,North,357,1.0,-999.0,91,-99.99,,,0.19,weatherlink.com 1.10,2013-11-22 10:58:00,
2013-11-22 04:13:00,56.5,54.0,29.44,North,357,1.0,-999.0,91,-99.99,,,0.19,weatherlink.com 1.10,2013-11-22 11:13:00,
2013-11-22 04:28:00,56.5,54.0,29.45,NNW,337,0.0,-999.0,91,-99.99,,,0.19,weatherlink.com 1.10,2013-11-22 11:28:00,
2013-11-22 04:43:00,56.3,54.0,29.46,North,353,3.0,-999.0,91,-99.99,,,0.20,weatherlink.com 1.10,2013-11-22 11:43:00,
2013-11-22 04:58:00,56.3,54.0,29.45,North,357,0.0,-999.0,90,-99.99,,,0.21,weatherlink.com 1.10,2013-11-22 11:58:00,
2013-11-22 05:13:00,56.3,54.0,29.44,North,350,1.0,-999.0,90,-99.99,,,0.21,weatherlink.com 1.10,2013-11-22 12:13:00,
2013-11-22 05:28:00,56.3,54.0,29.46,NW,316,6.0,-999.0,90,-99.99,,,0.22,weatherlink.com 1.10,2013-11-22 12:28:00,
2013-11-22 05:43:00,56.3,54.0,29.44,NW,311,0.0,-999.0,90,-99.99,,,0.23,weatherlink.com 1.10,2013-11-22 12:43:00,
2013-11-22 05:58:00,56.3,54.0,29.45,North,357,1.0,-999.0,90,-99.99,,,0.23,weatherlink.com 1.10,2013-11-22 12:58:00,
2013-11-22 06:13:00,56.2,53.0,29.43,NNW,335,3.0,-999.0,90,-99.99,,,0.23,weatherlink.com 1.10,2013-11-22 13:13:00,
2013-11-22 06:28:00,56.2,53.0,29.49,West,272,0.0,-999.0,89,-99.99,,,0.23,weatherlink.com 1.10,2013-11-22 13:28:00,
2013-11-22 06:43:00,56.0,53.0,29.45,SW,226,2.0,-999.0,89,-99.99,,,0.23,weatherlink.com 1.10,2013-11-22 13:43:00,
2013-11-22 06:58:00,56.2,53.0,29.50,North,357,0.0,-999.0,89,-99.99,,,0.23,weatherlink.com 1.10,2013-11-22 13:58:00,
2013-11-22 07:13:00,56.2,53.0,29.45,NNW,343,1.0,-999.0,90,-99.99,,,0.24,weatherlink.com 1.10,2013-11-22 14:13:00,
2013-11-22 07:28:00,56.2,54.0,29.45,North,357,2.0,-999.0,91,-99.99,,,0.24,weatherlink.com 1.10,2013-11-22 14:28:00,
2013-11-22 07:43:00,56.2,54.0,29.43,NNW,340,3.0,-999.0,92,-99.99,,,0.24,weatherlink.com 1.10,2013-11-22 14:43:00,
2013-11-22 07:58:00,56.2,54.0,29.50,SSE,158,0.0,-999.0,92,-99.99,,,0.24,weatherlink.com 1.10,2013-11-22 14:58:00,
2013-11-22 08:13:00,56.3,54.0,29.50,North,356,0.0,-999.0,92,-99.99,,,0.24,weatherlink.com 1.10,2013-11-22 15:13:00,
2013-11-22 08:28:00,56.5,54.0,29.50,North,356,0.0,-999.0,92,-99.99,,,0.25,weatherlink.com 1.10,2013-11-22 15:28:00,
2013-11-22 08:43:00,56.5,54.0,29.50,WSW,253,0.0,-999.0,92,-99.99,,,0.26,weatherlink.com 1.10,2013-11-22 15:43:00,
2013-11-22 08:58:00,56.7,55.0,29.47,NW,320,0.0,-999.0,93,-99.99,,,0.27,weatherlink.com 1.10,2013-11-22 15:58:00,
2013-11-22 09:13:00,56.7,55.0,29.50,SW,226,0.0,-999.0,93,-99.99,,,0.27,weatherlink.com 1.10,2013-11-22 16:13:00,
2013-11-22 09:28:00,56.7,55.0,29.51,SSW,206,0.0,-999.0,93,-99.99,,,0.27,weatherlink.com 1.10,2013-11-22 16:28:00,
2013-11-22 09:43:00,56.7,55.0,29.51,NW,316,0.0,-999.0,93,-99.99,,,0.27,weatherlink.com 1.10,2013-11-22 16:43:00,
2013-11-22 09:58:00,56.3,54.0,29.52,North,357,0.0,-999.0,93,-99.99,,,0.28,weatherlink.com 1.10,2013-11-22 16:58:00,
2013-11-22 10:13:00,55.9,54.0,29.52,North,357,0.0,-999.0,92,-99.99,,,0.29,weatherlink.com 1.10,2013-11-22 17:13:00,
2013-11-22 10:28:00,55.7,54.0,29.51,North,357,0.0,-999.0,93,-99.99,,,0.30,weatherlink.com 1.10,2013-11-22 17:28:00,
2013-11-22 10:43:00,55.7,54.0,29.52,North,350,0.0,-999.0,93,-99.99,,,0.31,weatherlink.com 1.10,2013-11-22 17:43:00,
2013-11-22 10:58:00,56.2,55.0,29.54,North,349,3.0,-999.0,94,-99.99,,,0.33,weatherlink.com 1.10,2013-11-22 17:58:00,
2013-11-22 11:13:00,56.3,54.0,29.53,North,357,0.0,-999.0,93,-99.99,,,0.34,weatherlink.com 1.10,2013-11-22 18:13:00,
2013-11-22 11:28:00,56.5,55.0,29.51,North,357,0.0,-999.0,93,-99.99,,,0.34,weatherlink.com 1.10,2013-11-22 18:28:00,
2013-11-22 11:43:00,56.5,55.0,29.52,North,354,0.0,-999.0,93,-99.99,,,0.34,weatherlink.com 1.10,2013-11-22 18:43:00,
2013-11-22 11:58:00,56.3,54.0,29.51,ESE,116,0.0,-999.0,93,-99.99,,,0.34,weatherlink.com 1.10,2013-11-22 18:58:00,
2013-11-22 12:13:00,56.6,55.0,29.51,North,357,0.0,-999.0,93,-99.99,,,0.34,weatherlink.com 1.10,2013-11-22 19:13:00,
2013-11-22 12:28:00,56.7,55.0,29.51,NNW,346,0.0,-999.0,93,-99.99,,,0.34,weatherlink.com 1.10,2013-11-22 19:28:00,
2013-11-22 12:43:00,56.6,54.0,29.51,North,352,0.0,-999.0,92,-99.99,,,0.34,weatherlink.com 1.10,2013-11-22 19:43:00,
2013-11-22 12:58:00,57.0,55.0,29.49,North,353,0.0,-999.0,92,-99.99,,,0.34,weatherlink.com 1.10,2013-11-22 19:58:00,
2013-11-22 13:13:00,56.9,54.0,29.50,North,359,4.0,-999.0,90,-99.99,,,0.34,weatherlink.com 1.10,2013-11-22 20:13:00,
2013-11-22 13:28:00,57.2,54.0,29.50,North,359,0.0,-999.0,89,-99.99,,,0.34,weatherlink.com 1.10,2013-11-22 20:28:00,
2013-11-22 13:43:00,57.6,54.0,29.49,North,359,0.0,-999.0,88,-99.99,,,0.36,weatherlink.com 1.10,2013-11-22 20:43:00,
2013-11-22 13:59:00,57.5,54.0,29.50,North,357,2.0,-999.0,88,-99.99,,,0.42,weatherlink.com 1.10,2013-11-22 20:59:00,
2013-11-22 14:14:00,57.3,54.0,29.49,North,359,0.0,-999.0,89,-99.99,,,0.42,weatherlink.com 1.10,2013-11-22 21:14:00,
2013-11-22 14:29:00,56.7,54.0,29.50,North,357,7.0,-999.0,91,-99.99,,,0.43,weatherlink.com 1.10,2013-11-22 21:29:00,
2013-11-22 14:44:00,56.6,54.0,29.50,North,357,0.0,-999.0,92,-99.99,,,0.43,weatherlink.com 1.10,2013-11-22 21:44:00,
2013-11-22 14:59:00,56.5,54.0,29.50,North,359,1.0,-999.0,92,-99.99,,,0.44,weatherlink.com 1.10,2013-11-22 21:59:00,
2013-11-22 15:14:00,56.5,55.0,29.51,North,359,0.0,-999.0,93,-99.99,,,0.44,weatherlink.com 1.10,2013-11-22 22:14:00,
2013-11-22 15:29:00,56.2,54.0,29.50,North,359,3.0,-999.0,93,-99.99,,,0.44,weatherlink.com 1.10,2013-11-22 22:29:00,
2013-11-22 15:44:00,56.0,54.0,29.50,North,359,0.0,-999.0,93,-99.99,,,0.44,weatherlink.com 1.10,2013-11-22 22:44:00,
2013-11-22 15:59:00,55.9,54.0,29.51,North,357,5.0,-999.0,93,-99.99,,,0.44,weatherlink.com 1.10,2013-11-22 22:59:00,
2013-11-22 16:14:00,55.6,54.0,29.53,North,357,7.0,-999.0,94,-99.99,,,0.45,weatherlink.com 1.10,2013-11-22 23:14:00,
2013-11-22 16:29:00,55.3,54.0,29.51,North,359,5.0,-999.0,94,-99.99,,,0.50,weatherlink.com 1.10,2013-11-22 23:29:00,
2013-11-22 16:44:00,55.3,54.0,29.51,North,359,0.0,-999.0,95,-99.99,,,0.52,weatherlink.com 1.10,2013-11-22 23:44:00,
2013-11-22 16:59:00,55.3,54.0,29.52,North,357,0.0,-999.0,95,-99.99,,,0.52,weatherlink.com 1.10,2013-11-22 23:59:00,
2013-11-22 17:14:00,55.1,54.0,29.52,North,359,0.0,-999.0,96,-99.99,,,0.52,weatherlink.com 1.10,2013-11-23 00:14:00,
2013-11-22 17:29:00,54.8,54.0,29.53,North,357,2.0,-999.0,96,-99.99,,,0.52,weatherlink.com 1.10,2013-11-23 00:29:00,
2013-11-22 17:44:00,54.5,53.0,29.53,North,359,8.0,-999.0,96,-99.99,,,0.53,weatherlink.com 1.10,2013-11-23 00:44:00,
2013-11-22 17:59:00,54.4,54.0,29.52,North,357,3.0,-999.0,97,-99.99,,,0.53,weatherlink.com 1.10,2013-11-23 00:59:00,
2013-11-22 18:14:00,54.5,54.0,29.52,North,357,0.0,-999.0,97,-99.99,,,0.53,weatherlink.com 1.10,2013-11-23 01:14:00,
2013-11-22 18:29:00,54.1,53.0,29.53,North,357,1.0,-999.0,97,-99.99,,,0.53,weatherlink.com 1.10,2013-11-23 01:29:00,
2013-11-22 18:44:00,53.9,53.0,29.54,North,350,6.0,-999.0,98,-99.99,,,0.53,weatherlink.com 1.10,2013-11-23 01:44:00,
2013-11-22 18:59:00,53.8,53.0,29.54,North,359,9.0,-999.0,98,-99.99,,,0.54,weatherlink.com 1.10,2013-11-23 01:59:00,
2013-11-22 19:14:00,53.3,53.0,29.54,North,357,0.0,-999.0,98,-99.99,,,0.54,weatherlink.com 1.10,2013-11-23 02:14:00,
2013-11-22 19:29:00,53.1,53.0,29.56,North,356,13.0,-999.0,98,-99.99,,,0.54,weatherlink.com 1.10,2013-11-23 02:29:00,
2013-11-22 19:44:00,52.8,53.0,29.53,North,357,12.0,-999.0,99,-99.99,,,0.54,weatherlink.com 1.10,2013-11-23 02:44:00,
2013-11-22 19:59:00,52.8,53.0,29.56,North,357,5.0,-999.0,99,-99.99,,,0.54,weatherlink.com 1.10,2013-11-23 02:59:00,
2013-11-22 20:14:00,52.6,52.0,29.57,North,359,5.0,-999.0,99,-99.99,,,0.55,weatherlink.com 1.10,2013-11-23 03:14:00,
2013-11-22 20:29:00,52.3,52.0,29.57,North,357,3.0,-999.0,99,-99.99,,,0.55,weatherlink.com 1.10,2013-11-23 03:29:00,
2013-11-22 20:44:00,52.5,52.0,29.57,North,357,6.0,-999.0,99,-99.99,,,0.56,weatherlink.com 1.10,2013-11-23 03:44:00,
2013-11-22 20:59:00,52.5,53.0,29.58,North,357,1.0,-999.0,100,-99.99,,,0.58,weatherlink.com 1.10,2013-11-23 03:59:00,
2013-11-22 21:14:00,52.3,52.0,29.58,North,359,1.0,-999.0,100,-99.99,,,0.59,weatherlink.com 1.10,2013-11-23 04:14:00,
2013-11-22 21:29:00,52.3,52.0,29.58,North,357,3.0,-999.0,100,-99.99,,,0.60,weatherlink.com 1.10,2013-11-23 04:29:00,
2013-11-22 21:44:00,52.5,53.0,29.58,North,357,0.0,-999.0,100,-99.99,,,0.61,weatherlink.com 1.10,2013-11-23 04:44:00,
2013-11-22 21:59:00,52.5,53.0,29.59,North,357,0.0,-999.0,100,-99.99,,,0.61,weatherlink.com 1.10,2013-11-23 04:59:00,
2013-11-22 22:14:00,52.6,53.0,29.59,North,357,0.0,-999.0,100,-99.99,,,0.61,weatherlink.com 1.10,2013-11-23 05:14:00,
2013-11-22 22:29:00,52.9,53.0,29.59,North,357,0.0,-999.0,100,-99.99,,,0.62,weatherlink.com 1.10,2013-11-23 05:29:00,
2013-11-22 22:44:00,52.9,53.0,29.59,North,357,0.0,-999.0,100,-99.99,,,0.62,weatherlink.com 1.10,2013-11-23 05:44:00,
2013-11-22 22:59:00,53.2,53.0,29.59,North,357,0.0,-999.0,100,-99.99,,,0.63,weatherlink.com 1.10,2013-11-23 05:59:00,
2013-11-22 23:14:00,53.3,53.0,29.59,NNW,340,0.0,-999.0,100,-99.99,,,0.63,weatherlink.com 1.10,2013-11-23 06:14:00,
2013-11-22 23:29:00,53.3,53.0,29.59,North,357,1.0,-999.0,100,-99.99,,,0.64,weatherlink.com 1.10,2013-11-23 06:29:00,
2013-11-22 23:44:00,53.3,53.0,29.59,North,357,0.0,-999.0,100,-99.99,,,0.64,weatherlink.com 1.10,2013-11-23 06:44:00,
2013-11-22 23:59:00,53.3,53.0,29.59,North,357,0.0,-999.0,100,-99.99,,,0.64,weatherlink.com 1.10,2013-11-23 06:59:00,